CW6344 Weather Reports


Display with metric or nautical units.
time (UTC)temp
F
wind
direction
speed
MPH
gust
MPH
rain 1hr
in
rain 24hr
in
rain mn
in
humidity
%
barometer
mb
20260508004455 50 175 0.0 0.0 0.00 0.07 0.07 85 1010.5
20260508003455 51 175 0.0 0.0 0.00 0.07 0.07 86 1010.3
20260508002455 51 175 0.0 0.0 0.00 0.07 0.07 85 1010.3
20260508000457 52 175 0.0 0.0 0.00 0.07 0.07 86 1010.2
20260507235455 52 175 0.0 0.0 0.00 0.07 0.07 85 1009.9
20260507234455 53 175 0.0 0.0 0.00 0.07 0.07 84 1009.7
20260507233455 53 175 0.0 0.0 0.00 0.07 0.07 84 1009.7
20260507232455 54 175 0.0 0.0 0.00 0.07 0.07 83 1009.7
20260507231455 54 175 0.0 0.0 0.00 0.07 0.07 82 1009.5
20260507230455 54 176 0.0 0.0 0.00 0.07 0.07 81 1009.4
20260507224455 55 225 0.0 0.0 0.00 0.07 0.07 80 1009.4
20260507223455 55 147 0.0 1.0 0.00 0.07 0.07 77 1009.5
20260507222455 55 232 1.0 1.0 0.00 0.07 0.07 81 1009.4
20260507221455 55 279 0.0 0.0 0.00 0.07 0.07 79 1009.5
20260507220525 55 279 0.0 0.0 0.00 0.07 0.07 77 1009.5
20260507215455 55 327 0.0 0.0 0.00 0.07 0.07 79 1009.8
20260507214455 54 312 0.0 1.0 0.00 0.07 0.07 80 1009.9
20260507213455 54 238 0.0 2.0 0.00 0.07 0.07 82 1009.8
20260507212455 54 324 0.0 0.0 0.00 0.07 0.07 84 1009.7
20260507211455 53 260 0.0 0.0 0.00 0.07 0.07 84 1009.9
20260507210455 53 126 0.0 0.0 0.00 0.07 0.07 86 1009.8
20260507205455 54 99 0.0 0.0 0.01 0.07 0.07 85 1009.7
20260507204455 54 99 0.0 0.0 0.01 0.07 0.07 84 1009.5
20260507203455 53 48 0.0 0.0 0.02 0.07 0.07 85 1009.7
20260507202625 53 273 0.0 0.0 0.02 0.07 0.07 83 1010.4
20260507201455 54 272 0.0 0.0 0.02 0.07 0.07 81 1009.9
20260507200455 54 273 0.0 0.0 0.02 0.07 0.07 85 1009.5
20260507195455 54 272 0.0 0.0 0.01 0.06 0.06 81 1010.0
20260507194455 54 273 0.0 0.0 0.01 0.06 0.06 81 1010.0
20260507193455 54 272 0.0 0.0 0.00 0.05 0.05 78 1010.0
20260507192455 55 272 0.0 0.0 0.00 0.05 0.05 75 1010.4
20260507191455 55 272 0.0 0.0 0.00 0.05 0.05 74 1010.2
20260507190455 55 272 0.0 0.0 0.00 0.05 0.05 71 1010.1
20260507185455 56 272 0.0 0.0 0.00 0.05 0.05 64 1010.3
20260507184525 56 272 0.0 1.0 0.00 0.05 0.05 61 1010.3
20260507183455 57 325 0.0 2.0 0.00 0.05 0.05 64 1010.3
20260507182555 56 324 0.0 1.0 0.00 0.05 0.05 67 1010.4
20260507181455 56 274 0.0 0.0 0.00 0.05 0.05 63 1010.5
20260507180525 56 274 0.0 0.0 0.00 0.05 0.05 61 1010.8
20260507175455 56 298 0.0 0.0 0.00 0.05 0.05 68 1010.6
20260507174455 56 285 0.0 0.0 0.00 0.05 0.05 68 1010.9
20260507173455 56 284 0.0 0.0 0.00 0.05 0.05 67 1011.1
20260507172455 57 284 0.0 0.0 0.00 0.05 0.05 64 1011.4
20260507171455 57 279 0.0 0.0 0.00 0.05 0.05 62 1011.2
20260507170455 57 311 0.0 0.0 0.00 0.05 0.05 60 1011.1
20260507165455 58 287 0.0 0.0 0.00 0.05 0.05 58 1011.4
20260507164455 58 271 2.0 2.0 0.00 0.05 0.05 54 1011.2
20260507163455 58 328 0.0 0.0 0.00 0.05 0.05 58 1011.5
20260507162455 58 319 0.0 2.0 0.00 0.06 0.05 59 1011.6
20260507161455 58 289 0.0 0.0 0.00 0.06 0.05 59 1011.6
20260507160455 58 344 0.0 1.0 0.00 0.07 0.05 56 1011.9
20260507155455 58 192 0.0 1.0 0.00 0.09 0.05 62 1011.7
20260507154525 57 334 0.0 0.0 0.00 0.12 0.05 63 1011.7
20260507153455 57 319 0.0 0.0 0.00 0.12 0.05 60 1011.8
20260507152455 57 319 0.0 1.0 0.00 0.13 0.05 55 1012.0
20260507151455 58 282 0.0 1.0 0.00 0.13 0.05 58 1011.8
20260507150455 57 44 1.0 1.0 0.00 0.14 0.05 63 1011.9
20260507145455 57 360 0.0 1.0 0.00 0.14 0.05 55 1012.1
20260507144525 57 63 0.0 1.0 0.00 0.14 0.05 58 1012.0
20260507143455 58 311 2.0 3.0 0.00 0.14 0.05 58 1012.2
20260507142455 58 294 1.0 1.0 0.00 0.15 0.05 65 1012.2
20260507141455 58 51 0.0 1.0 0.00 0.15 0.05 65 1012.2
20260507140455 58 142 0.0 2.0 0.00 0.15 0.05 67 1012.0
20260507134455 58 342 0.0 1.0 0.00 0.15 0.05 74 1011.8
20260507133455 58 241 0.0 4.0 0.00 0.15 0.05 76 1012.0
20260507132455 58 295 0.0 0.0 0.00 0.15 0.05 79 1012.1
20260507131455 58 344 0.0 1.0 0.00 0.15 0.05 79 1012.0
20260507130455 58 9 1.0 1.0 0.00 0.15 0.05 80 1012.1
20260507125455 58 276 0.0 0.0 0.00 0.15 0.05 82 1012.0
20260507124625 57 164 0.0 0.0 0.00 0.15 0.05 83 1011.9
20260507123455 56 209 0.0 0.0 0.00 0.15 0.05 84 1011.6
20260507122455 56 57 0.0 0.0 0.00 0.15 0.05 84 1011.8
20260507121455 56 261 0.0 0.0 0.00 0.15 0.05 85 1011.8
20260507120525 56 328 0.0 0.0 0.00 0.15 0.05 85 1012.0
20260507115455 56 40 0.0 0.0 0.01 0.15 0.05 86 1011.8
20260507114455 56 40 0.0 0.0 0.01 0.15 0.05 87 1011.8
20260507113455 56 40 0.0 1.0 0.01 0.15 0.05 87 1012.0
20260507112455 56 19 0.0 0.0 0.01 0.15 0.05 88 1011.9
20260507111455 56 19 0.0 0.0 0.01 0.15 0.05 88 1011.6
20260507110455 55 119 0.0 1.0 0.01 0.15 0.05 87 1011.8
20260507105455 55 11 0.0 1.0 0.00 0.14 0.04 87 1011.6
20260507104525 55 29 0.0 0.0 0.00 0.14 0.04 87 1011.0
20260507103455 56 256 0.0 0.0 0.00 0.14 0.04 86 1011.0
20260507102455 57 38 0.0 0.0 0.00 0.14 0.04 85 1011.3
20260507101455 57 360 0.0 0.0 0.00 0.14 0.04 85 1011.1
20260507100455 57 264 2.0 2.0 0.00 0.14 0.04 85 1011.2
20260507095456 57 22 0.0 7.0 0.00 0.14 0.04 85 1010.5
20260507094526 57 325 0.0 6.0 0.00 0.14 0.04 86 1010.7
20260507092455 58 36 0.0 1.0 0.00 0.14 0.04 87 1010.7
20260507090455 58 43 0.0 2.0 0.00 0.14 0.04 88 1010.6
20260507084526 58 328 1.0 2.0 0.00 0.14 0.04 89 1010.5
20260507083456 58 331 1.0 2.0 0.00 0.14 0.04 89 1010.4
20260507082455 58 140 1.0 1.0 0.00 0.14 0.04 90 1010.0
20260507081456 59 297 0.0 0.0 0.00 0.14 0.04 90 1009.9
20260507080455 59 290 0.0 0.0 0.00 0.14 0.04 89 1010.3
20260507074456 60 360 0.0 0.0 0.00 0.14 0.04 90 1010.4
20260507073456 60 344 0.0 2.0 0.00 0.14 0.04 90 1010.3
20260507072456 60 350 1.0 2.0 0.00 0.14 0.04 90 1009.9
20260507071456 60 48 0.0 3.0 0.00 0.14 0.04 90 1009.6
20260507070526 61 42 0.0 1.0 0.00 0.14 0.04 91 1009.4
20260507065456 62 22 0.0 2.0 0.00 0.14 0.04 91 1009.0
20260507064525 63 128 0.0 0.0 0.00 0.14 0.04 91 1008.9
20260507063456 63 128 0.0 0.0 0.00 0.14 0.04 91 1008.5
20260507062456 64 127 0.0 0.0 0.03 0.14 0.04 91 1008.6
20260507060456 64 49 0.0 0.0 0.04 0.14 0.04 90 1009.1
20260507055456 64 41 0.0 0.0 0.04 0.14 0.04 90 1009.1
20260507054456 65 255 0.0 0.0 0.04 0.14 0.04 90 1009.2
20260507053456 65 73 1.0 2.0 0.04 0.14 0.04 89 1009.3
20260507052456 65 244 0.0 0.0 0.01 0.11 0.01 88 1009.4
20260507051456 65 244 0.0 0.0 0.00 0.10 0.00 87 1009.4
20260507050456 65 244 0.0 0.0 0.00 0.10 0.00 87 1009.3
20260507045456 65 244 0.0 0.0 0.00 0.10 0.00 87 1009.3
20260507044456 65 244 0.0 0.0 0.00 0.10 0.00 87 1009.3
20260507043456 65 244 0.0 0.0 0.00 0.10 0.00 86 1009.2
20260507042456 65 244 0.0 0.0 0.00 0.10 0.00 86 1009.2
20260507041456 66 244 0.0 0.0 0.00 0.10 0.00 85 1009.2
20260507040456 66 244 0.0 0.0 0.00 0.10 0.10 85 1009.2
20260507035456 66 244 0.0 0.0 0.00 0.10 0.10 85 1009.4
20260507034556 65 244 0.0 0.0 0.00 0.10 0.10 86 1009.5
20260507033456 65 244 0.0 0.0 0.00 0.10 0.10 86 1009.4
20260507032456 65 244 0.0 0.0 0.00 0.10 0.10 86 1009.0
20260507031456 66 244 0.0 0.0 0.00 0.10 0.10 85 1008.7
20260507030456 66 242 0.0 0.0 0.00 0.10 0.10 85 1008.6
20260507025456 66 242 0.0 0.0 0.00 0.10 0.10 84 1008.5
20260507024456 66 242 0.0 0.0 0.00 0.10 0.10 84 1008.6
20260507023456 66 242 0.0 1.0 0.00 0.10 0.10 84 1008.8
20260507022456 66 241 0.0 2.0 0.00 0.10 0.10 85 1009.1
20260507021456 66 232 0.0 1.0 0.00 0.10 0.10 85 1009.3
20260507020456 66 227 0.0 0.0 0.00 0.10 0.10 85 1009.3
20260507014526 66 227 0.0 0.0 0.00 0.10 0.10 84 1009.1
20260507012456 67 232 0.0 0.0 0.00 0.10 0.10 83 1009.0
20260507011456 67 277 2.0 2.0 0.00 0.10 0.10 83 1009.0
20260507010456 67 277 0.0 1.0 0.00 0.10 0.10 83 1009.2